Location: Newark
(48.9320°N, 2.2664°E)
Time: 01:11:44
(UTC+00:00)

Vanguard 1 Rocket - Pass Details

Date: 19 February 2020
Orbit: 650 x 4226 km, 34.3° (Epoch: 28 March)

Event Time Altitude Azimuth Distance (km) Brightness Sun altitude
Rises 06:53:45 0° 245° (WSW) 2,974 9.6 -0.8°
Reaches altitude 10° 06:58:10 10° 202° (SSW) 2,089 9.3 -0.1°
Maximum altitude 06:58:57 10° 191° (SSW) 2,094 9.4 0.1°
Drops below altitude 10° 06:59:46 10° 181° (S) 2,159 9.6 0.2°
Sets 07:04:54 0° 141° (SE) 3,504 11.5 1.0°
